Location: Stanford
(52.2833°N, 2.4333°W)
Time: 19:47:04
(UTC+00:00)

ATLAS 5 CENTAUR R/B - Pass Details

Date: 22 January 2021
Orbit: 511 x 1147 km, 63.3° (Epoch: 16 February)

Event Time Altitude Azimuth Distance (km) Brightness Sun altitude
Rises 18:00:38 0° 237° (WSW) 2,686 6.5 -12.2°
Reaches altitude 10° 18:02:43 10° 242° (WSW) 1,844 5.4 -12.5°
Maximum altitude 18:06:47 59° 322° (NW) 708 1.9 -13.1°
Enters shadow 18:10:37 15° 41° (NE) 1,793 3.4 -13.7°
